Year,Month,Day,Hour,Minute,Value (Times are PST for temperature in C)
2009,09,23,00,00,15.70
2009,09,23,00,01,15.70
2009,09,23,00,02,15.70
2009,09,23,00,03,15.80
2009,09,23,00,04,15.80
2009,09,23,00,05,15.80
2009,09,23,00,06,15.80
2009,09,23,00,07,15.90
2009,09,23,00,08,15.90
2009,09,23,00,09,15.90
2009,09,23,00,10,15.90
2009,09,23,00,11,15.90
2009,09,23,00,12,15.90
2009,09,23,00,13,15.90
2009,09,23,00,14,15.80
2009,09,23,00,15,15.80
2009,09,23,00,16,15.70
2009,09,23,00,17,15.60
2009,09,23,00,18,15.60
2009,09,23,00,19,15.60
2009,09,23,00,20,15.50
2009,09,23,00,21,15.50
2009,09,23,00,22,15.40
2009,09,23,00,23,15.50
2009,09,23,00,24,15.50
2009,09,23,00,25,15.50
2009,09,23,00,26,15.50
2009,09,23,00,27,15.50
2009,09,23,00,28,15.50
2009,09,23,00,29,15.50
2009,09,23,00,30,15.50
2009,09,23,00,31,15.50
2009,09,23,00,32,15.50
2009,09,23,00,33,15.40
2009,09,23,00,34,15.30
2009,09,23,00,35,15.30
2009,09,23,00,36,15.30
2009,09,23,00,37,15.30
2009,09,23,00,38,15.30
2009,09,23,00,39,15.30
2009,09,23,00,40,15.40
2009,09,23,00,41,15.40
2009,09,23,00,42,15.40
2009,09,23,00,43,15.40
2009,09,23,00,44,15.40
2009,09,23,00,45,15.40
2009,09,23,00,46,15.50
2009,09,23,00,47,15.50
2009,09,23,00,48,15.50
2009,09,23,00,49,15.40
2009,09,23,00,50,15.40
2009,09,23,00,51,15.40
2009,09,23,00,52,15.30
2009,09,23,00,53,15.30
2009,09,23,00,54,15.30
2009,09,23,00,55,15.30
2009,09,23,00,56,15.30
2009,09,23,00,57,15.30
2009,09,23,00,58,15.20
2009,09,23,00,59,15.10
2009,09,23,01,00,15.10
2009,09,23,01,01,15.00
2009,09,23,01,02,14.90
2009,09,23,01,03,14.90
2009,09,23,01,04,14.90
2009,09,23,01,05,14.90
2009,09,23,01,06,15.00
2009,09,23,01,07,15.00
2009,09,23,01,08,15.10
2009,09,23,01,09,15.10
2009,09,23,01,10,15.20
2009,09,23,01,11,15.20
2009,09,23,01,12,15.20
2009,09,23,01,13,15.20
2009,09,23,01,14,15.20
2009,09,23,01,15,15.10
2009,09,23,01,16,15.10
2009,09,23,01,17,15.00
2009,09,23,01,18,15.00
2009,09,23,01,19,15.00
2009,09,23,01,20,15.00
2009,09,23,01,21,14.90
2009,09,23,01,22,14.90
2009,09,23,01,23,14.90
2009,09,23,01,24,14.90
2009,09,23,01,25,14.90
2009,09,23,01,26,14.80
2009,09,23,01,27,14.80
2009,09,23,01,28,14.80
2009,09,23,01,29,14.80
2009,09,23,01,30,14.70
2009,09,23,01,31,14.70
2009,09,23,01,32,14.70
2009,09,23,01,33,14.70
2009,09,23,01,34,14.70
2009,09,23,01,35,14.70
2009,09,23,01,36,14.70
2009,09,23,01,37,14.60
2009,09,23,01,38,14.60
2009,09,23,01,39,14.60
2009,09,23,01,40,14.60
2009,09,23,01,41,14.70
2009,09,23,01,42,14.70
2009,09,23,01,43,14.80
2009,09,23,01,44,14.80
2009,09,23,01,45,14.80
2009,09,23,01,46,14.90
2009,09,23,01,47,15.00
2009,09,23,01,48,15.00
2009,09,23,01,49,15.00
2009,09,23,01,50,15.00
2009,09,23,01,51,14.90
2009,09,23,01,52,14.90
2009,09,23,01,53,14.80
2009,09,23,01,54,14.80
2009,09,23,01,55,14.70
2009,09,23,01,56,14.70
2009,09,23,01,57,14.60
2009,09,23,01,58,14.50
2009,09,23,01,59,14.50
2009,09,23,02,00,14.50
2009,09,23,02,01,14.50
2009,09,23,02,02,14.50
2009,09,23,02,03,14.40
2009,09,23,02,04,14.40
2009,09,23,02,05,14.40
2009,09,23,02,06,14.40
2009,09,23,02,07,14.40
2009,09,23,02,08,14.30
2009,09,23,02,09,14.20
2009,09,23,02,10,14.10
2009,09,23,02,11,14.00
2009,09,23,02,12,13.90
2009,09,23,02,13,13.90
2009,09,23,02,14,13.80
2009,09,23,02,15,13.70
2009,09,23,02,16,13.70
2009,09,23,02,17,13.70
2009,09,23,02,18,13.80
2009,09,23,02,19,13.90
2009,09,23,02,20,13.90
2009,09,23,02,21,14.00
2009,09,23,02,22,14.10
2009,09,23,02,23,14.20
2009,09,23,02,24,14.20
2009,09,23,02,25,14.20
2009,09,23,02,26,14.20
2009,09,23,02,27,14.20
2009,09,23,02,28,14.20
2009,09,23,02,29,14.20
2009,09,23,02,30,14.10
2009,09,23,02,31,14.00
2009,09,23,02,32,13.90
2009,09,23,02,33,13.90
2009,09,23,02,34,13.90
2009,09,23,02,35,13.90
2009,09,23,02,36,13.90
2009,09,23,02,37,14.00
2009,09,23,02,38,14.10
2009,09,23,02,39,14.10
2009,09,23,02,40,14.20
2009,09,23,02,41,14.20
2009,09,23,02,42,14.30
2009,09,23,02,43,14.40
2009,09,23,02,44,14.50
2009,09,23,02,45,14.50
2009,09,23,02,46,14.50
2009,09,23,02,47,14.50
2009,09,23,02,48,14.50
2009,09,23,02,49,14.50
2009,09,23,02,50,14.50
2009,09,23,02,51,14.50
2009,09,23,02,52,14.50
2009,09,23,02,53,14.50
2009,09,23,02,54,14.40
2009,09,23,02,55,14.40
2009,09,23,02,56,14.40
2009,09,23,02,57,14.40
2009,09,23,02,58,14.40
2009,09,23,02,59,14.30
2009,09,23,03,00,14.20
2009,09,23,03,01,14.10
2009,09,23,03,02,14.00
2009,09,23,03,03,13.90
2009,09,23,03,04,13.70
2009,09,23,03,05,13.70
2009,09,23,03,06,13.60
2009,09,23,03,07,13.60
2009,09,23,03,08,13.60
2009,09,23,03,09,13.60
2009,09,23,03,10,13.60
2009,09,23,03,11,13.50
2009,09,23,03,12,13.50
2009,09,23,03,13,13.50
2009,09,23,03,14,13.40
2009,09,23,03,15,13.40
2009,09,23,03,16,13.30
2009,09,23,03,17,13.30
2009,09,23,03,18,13.30
2009,09,23,03,19,13.20
2009,09,23,03,20,13.20
2009,09,23,03,21,13.20
2009,09,23,03,22,13.20
2009,09,23,03,23,13.30
2009,09,23,03,24,13.30
2009,09,23,03,25,13.30
2009,09,23,03,26,13.40
2009,09,23,03,27,13.40
2009,09,23,03,28,13.40
2009,09,23,03,29,13.40
2009,09,23,03,30,13.50
2009,09,23,03,31,13.50
2009,09,23,03,32,13.60
2009,09,23,03,33,13.60
2009,09,23,03,34,13.60
2009,09,23,03,35,13.60
2009,09,23,03,36,13.60
2009,09,23,03,37,13.60
2009,09,23,03,38,13.60
2009,09,23,03,39,13.60
2009,09,23,03,40,13.60
2009,09,23,03,41,13.50
2009,09,23,03,42,13.40
2009,09,23,03,43,13.30
2009,09,23,03,44,13.30
2009,09,23,03,45,13.30
2009,09,23,03,46,13.20
2009,09,23,03,47,13.20
2009,09,23,03,48,13.20
2009,09,23,03,49,13.10
2009,09,23,03,50,13.10
2009,09,23,03,51,13.20
2009,09,23,03,52,13.30
2009,09,23,03,53,13.50
2009,09,23,03,54,13.60
2009,09,23,03,55,13.60
2009,09,23,03,56,13.70
2009,09,23,03,57,13.70
2009,09,23,03,58,13.70
2009,09,23,03,59,13.80
2009,09,23,04,00,13.80
2009,09,23,04,01,13.80
2009,09,23,04,02,13.80
2009,09,23,04,03,13.80
2009,09,23,04,04,13.80
2009,09,23,04,05,13.70
2009,09,23,04,06,13.70
2009,09,23,04,07,13.70
2009,09,23,04,08,13.60
2009,09,23,04,09,13.50
2009,09,23,04,10,13.40
2009,09,23,04,11,13.30
2009,09,23,04,12,13.20
2009,09,23,04,13,13.20
2009,09,23,04,14,13.20
2009,09,23,04,15,13.20
2009,09,23,04,16,13.20
2009,09,23,04,17,13.30
2009,09,23,04,18,13.30
2009,09,23,04,19,13.40
2009,09,23,04,20,13.50
2009,09,23,04,21,13.50
2009,09,23,04,22,13.50
2009,09,23,04,23,13.50
2009,09,23,04,24,13.50
2009,09,23,04,25,13.40
2009,09,23,04,26,13.30
2009,09,23,04,27,13.20
2009,09,23,04,28,13.20
2009,09,23,04,29,13.10
2009,09,23,04,30,13.10
2009,09,23,04,31,13.10
2009,09,23,04,32,13.10
2009,09,23,04,33,13.20
2009,09,23,04,34,13.40
2009,09,23,04,35,13.50
2009,09,23,04,36,13.60
2009,09,23,04,37,13.60
2009,09,23,04,38,13.70
2009,09,23,04,39,13.60
2009,09,23,04,40,13.60
2009,09,23,04,41,13.60
2009,09,23,04,42,13.60
2009,09,23,04,43,13.60
2009,09,23,04,44,13.50
2009,09,23,04,45,13.50
2009,09,23,04,46,13.40
2009,09,23,04,47,13.30
2009,09,23,04,48,13.30
2009,09,23,04,49,13.30
2009,09,23,04,50,13.30
2009,09,23,04,51,13.30
2009,09,23,04,52,13.30
2009,09,23,04,53,13.20
2009,09,23,04,54,13.20
2009,09,23,04,55,13.20
2009,09,23,04,56,13.20
2009,09,23,04,57,13.10
2009,09,23,04,58,13.00
2009,09,23,04,59,12.90
2009,09,23,05,00,12.90
2009,09,23,05,01,12.90
2009,09,23,05,02,12.90
2009,09,23,05,03,12.90
2009,09,23,05,04,12.90
2009,09,23,05,05,13.00
2009,09,23,05,06,13.00
2009,09,23,05,07,13.00
2009,09,23,05,08,13.00
2009,09,23,05,09,13.00
2009,09,23,05,10,13.10
2009,09,23,05,11,13.10
2009,09,23,05,12,13.10
2009,09,23,05,13,13.10
2009,09,23,05,14,13.10
2009,09,23,05,15,13.10
2009,09,23,05,16,13.20
2009,09,23,05,17,13.20
2009,09,23,05,18,13.30
2009,09,23,05,19,13.30
2009,09,23,05,20,13.30
2009,09,23,05,21,13.30
2009,09,23,05,22,13.30
2009,09,23,05,23,13.30
2009,09,23,05,24,13.30
2009,09,23,05,25,13.30
2009,09,23,05,26,13.30
2009,09,23,05,27,13.30
2009,09,23,05,28,13.30
2009,09,23,05,29,13.30
2009,09,23,05,30,13.30
2009,09,23,05,31,13.30
2009,09,23,05,32,13.30
2009,09,23,05,33,13.30
2009,09,23,05,34,13.20
2009,09,23,05,35,13.20
2009,09,23,05,36,13.10
2009,09,23,05,37,13.10
2009,09,23,05,38,13.10
2009,09,23,05,39,13.00
2009,09,23,05,40,13.00
2009,09,23,05,41,12.90
2009,09,23,05,42,12.80
2009,09,23,05,43,12.80
2009,09,23,05,44,12.80
2009,09,23,05,45,12.70
2009,09,23,05,46,12.70
2009,09,23,05,47,12.60
2009,09,23,05,48,12.50
2009,09,23,05,49,12.50
2009,09,23,05,50,12.50
2009,09,23,05,51,12.40
2009,09,23,05,52,12.40
2009,09,23,05,53,12.30
2009,09,23,05,54,12.30
2009,09,23,05,55,12.30
2009,09,23,05,56,12.20
2009,09,23,05,57,12.20
2009,09,23,05,58,12.10
2009,09,23,05,59,12.10
2009,09,23,06,00,12.00
2009,09,23,06,01,12.00
2009,09,23,06,02,12.00
2009,09,23,06,03,11.90
2009,09,23,06,04,11.90
2009,09,23,06,05,11.90
2009,09,23,06,06,11.90
2009,09,23,06,07,11.80
2009,09,23,06,08,11.80
2009,09,23,06,09,11.80
2009,09,23,06,10,11.80
2009,09,23,06,11,11.80
2009,09,23,06,12,11.80
2009,09,23,06,13,11.90
2009,09,23,06,14,11.90
2009,09,23,06,15,12.00
2009,09,23,06,16,12.00
2009,09,23,06,17,12.00
2009,09,23,06,18,12.10
2009,09,23,06,19,12.10
2009,09,23,06,20,12.10
2009,09,23,06,21,12.20
2009,09,23,06,22,12.20
2009,09,23,06,23,12.20
2009,09,23,06,24,12.30
2009,09,23,06,25,12.30
2009,09,23,06,26,12.30
2009,09,23,06,27,12.30
2009,09,23,06,28,12.30
2009,09,23,06,29,12.30
2009,09,23,06,30,12.20
2009,09,23,06,31,12.10
2009,09,23,06,32,12.10
2009,09,23,06,33,12.00
2009,09,23,06,34,11.90
2009,09,23,06,35,11.80
2009,09,23,06,36,11.80
2009,09,23,06,37,11.80
2009,09,23,06,38,11.70
2009,09,23,06,39,11.70
2009,09,23,06,40,11.60
2009,09,23,06,41,11.60
2009,09,23,06,42,11.60
2009,09,23,06,43,11.60
2009,09,23,06,44,11.60
2009,09,23,06,45,11.60
2009,09,23,06,46,11.70
2009,09,23,06,47,11.70
2009,09,23,06,48,11.70
2009,09,23,06,49,11.70
2009,09,23,06,50,11.70
2009,09,23,06,51,11.70
2009,09,23,06,52,11.80
2009,09,23,06,53,11.80
2009,09,23,06,54,11.80
2009,09,23,06,55,11.90
2009,09,23,06,56,11.90
2009,09,23,06,57,12.00
2009,09,23,06,58,12.00
2009,09,23,06,59,12.00
2009,09,23,07,00,12.00
2009,09,23,07,01,12.10
2009,09,23,07,02,12.10
2009,09,23,07,03,12.00
2009,09,23,07,04,12.00
2009,09,23,07,05,12.00
2009,09,23,07,06,12.10
2009,09,23,07,07,12.10
2009,09,23,07,08,12.20
2009,09,23,07,09,12.20
2009,09,23,07,10,12.20
2009,09,23,07,11,12.20
2009,09,23,07,12,12.20
2009,09,23,07,13,12.10
2009,09,23,07,14,12.10
2009,09,23,07,15,12.00
2009,09,23,07,16,12.00
2009,09,23,07,17,11.90
2009,09,23,07,18,11.90
2009,09,23,07,19,12.00
2009,09,23,07,20,12.00
2009,09,23,07,21,12.10
2009,09,23,07,22,12.10
2009,09,23,07,23,12.20
2009,09,23,07,24,12.20
2009,09,23,07,25,12.20
2009,09,23,07,26,12.30
2009,09,23,07,27,12.30
2009,09,23,07,28,12.40
2009,09,23,07,29,12.40
2009,09,23,07,30,12.40
2009,09,23,07,31,12.50
2009,09,23,07,32,12.60
2009,09,23,07,33,12.70
2009,09,23,07,34,12.80
2009,09,23,07,35,12.80
2009,09,23,07,36,12.90
2009,09,23,07,37,12.90
2009,09,23,07,38,13.00
2009,09,23,07,39,13.10
2009,09,23,07,40,13.10
2009,09,23,07,41,13.10
2009,09,23,07,42,13.20
2009,09,23,07,43,13.20
2009,09,23,07,44,13.20
2009,09,23,07,45,13.20
2009,09,23,07,46,13.20
2009,09,23,07,47,13.20
2009,09,23,07,48,13.10
2009,09,23,07,49,13.10
2009,09,23,07,50,13.00
2009,09,23,07,51,13.00
2009,09,23,07,52,13.00
2009,09,23,07,53,13.00
2009,09,23,07,54,13.00
2009,09,23,07,55,13.00
2009,09,23,07,56,13.00
2009,09,23,07,57,13.10
2009,09,23,07,58,13.10
2009,09,23,07,59,13.10
2009,09,23,08,00,13.10
2009,09,23,08,01,13.20
2009,09,23,08,02,13.20
2009,09,23,08,03,13.20
2009,09,23,08,04,13.20
2009,09,23,08,05,13.30
2009,09,23,08,06,13.30
2009,09,23,08,07,13.30
2009,09,23,08,08,13.40
2009,09,23,08,09,13.50
2009,09,23,08,10,13.60
2009,09,23,08,11,13.70
2009,09,23,08,12,13.90
2009,09,23,08,13,14.10
2009,09,23,08,14,14.30
2009,09,23,08,15,14.40
2009,09,23,08,16,14.70
2009,09,23,08,17,14.80
2009,09,23,08,18,14.90
2009,09,23,08,19,15.10
2009,09,23,08,20,15.20
2009,09,23,08,21,15.30
2009,09,23,08,22,15.50
2009,09,23,08,23,15.60
2009,09,23,08,24,15.70
2009,09,23,08,25,15.70
2009,09,23,08,26,15.80
2009,09,23,08,27,15.80
2009,09,23,08,28,15.80
2009,09,23,08,29,15.90
2009,09,23,08,30,15.90
2009,09,23,08,31,15.90
2009,09,23,08,32,16.00
2009,09,23,08,33,16.10
2009,09,23,08,34,16.10
2009,09,23,08,35,16.10
2009,09,23,08,36,16.10
2009,09,23,08,37,16.10
2009,09,23,08,38,16.10
2009,09,23,08,39,16.10
2009,09,23,08,40,16.20
2009,09,23,08,41,16.30
2009,09,23,08,42,16.40
2009,09,23,08,43,16.50
2009,09,23,08,44,16.70
2009,09,23,08,45,16.90
2009,09,23,08,46,17.00
2009,09,23,08,47,17.00
2009,09,23,08,48,17.20
2009,09,23,08,49,17.30
2009,09,23,08,50,17.30
2009,09,23,08,51,17.40
2009,09,23,08,52,17.50
2009,09,23,08,53,17.50
2009,09,23,08,54,17.60
2009,09,23,08,55,17.70
2009,09,23,08,56,17.80
2009,09,23,08,57,17.90
2009,09,23,08,58,18.00
2009,09,23,08,59,18.10
2009,09,23,09,00,18.10
2009,09,23,09,01,18.20
2009,09,23,09,02,18.20
2009,09,23,09,03,18.20
2009,09,23,09,04,18.30
2009,09,23,09,05,18.40
2009,09,23,09,06,18.40
2009,09,23,09,07,18.50
2009,09,23,09,08,18.50
2009,09,23,09,09,18.60
2009,09,23,09,10,18.60
2009,09,23,09,11,18.70
2009,09,23,09,12,18.70
2009,09,23,09,13,18.70
2009,09,23,09,14,18.80
2009,09,23,09,15,18.90
2009,09,23,09,16,19.00
2009,09,23,09,17,19.10
2009,09,23,09,18,19.20
2009,09,23,09,19,19.30
2009,09,23,09,20,19.30
2009,09,23,09,21,19.40
2009,09,23,09,22,19.40
2009,09,23,09,23,19.50
2009,09,23,09,24,19.60
2009,09,23,09,25,19.70
2009,09,23,09,26,19.70
2009,09,23,09,27,19.60
2009,09,23,09,28,19.60
2009,09,23,09,29,19.50
2009,09,23,09,30,19.30
2009,09,23,09,31,19.00
2009,09,23,09,32,18.90
2009,09,23,09,33,18.70
2009,09,23,09,34,18.60
2009,09,23,09,35,18.60
2009,09,23,09,36,18.50
2009,09,23,09,37,18.40
2009,09,23,09,38,18.40
2009,09,23,09,39,18.40
2009,09,23,09,40,18.30
2009,09,23,09,41,18.20
2009,09,23,09,42,18.20
2009,09,23,09,43,18.20
2009,09,23,09,44,18.10
2009,09,23,09,45,18.00
2009,09,23,09,46,17.80
2009,09,23,09,47,17.50
2009,09,23,09,48,17.30
2009,09,23,09,49,17.30
2009,09,23,09,50,17.30
2009,09,23,09,51,17.30
2009,09,23,09,52,17.30
2009,09,23,09,53,17.30
2009,09,23,09,54,17.30
2009,09,23,09,55,17.30
2009,09,23,09,56,17.30
2009,09,23,09,57,17.30
2009,09,23,09,58,17.20
2009,09,23,09,59,17.10
2009,09,23,10,00,17.00
2009,09,23,10,01,17.00
2009,09,23,10,02,17.00
2009,09,23,10,03,17.10
2009,09,23,10,04,17.30
2009,09,23,10,05,17.30
2009,09,23,10,06,17.30
2009,09,23,10,07,17.40
2009,09,23,10,08,17.40
2009,09,23,10,09,17.50
2009,09,23,10,10,17.60
2009,09,23,10,11,17.70
2009,09,23,10,12,17.80
2009,09,23,10,13,18.00
2009,09,23,10,14,18.10
2009,09,23,10,15,18.30
2009,09,23,10,16,18.50
2009,09,23,10,17,18.70
2009,09,23,10,18,18.90
2009,09,23,10,19,19.10
2009,09,23,10,20,19.30
2009,09,23,10,21,19.50
2009,09,23,10,22,19.60
2009,09,23,10,23,19.80
2009,09,23,10,24,19.90
2009,09,23,10,25,19.90
2009,09,23,10,26,20.00
2009,09,23,10,27,20.10
2009,09,23,10,28,20.20
2009,09,23,10,29,20.40
2009,09,23,10,30,20.50
2009,09,23,10,31,20.50
2009,09,23,10,32,20.50
2009,09,23,10,33,20.50
2009,09,23,10,34,20.50
2009,09,23,10,35,20.50
2009,09,23,10,36,20.50
2009,09,23,10,37,20.50
2009,09,23,10,38,20.50
2009,09,23,10,39,20.30
2009,09,23,10,40,20.20
2009,09,23,10,41,20.10
2009,09,23,10,42,20.00
2009,09,23,10,43,19.90
2009,09,23,10,44,19.90
2009,09,23,10,45,19.90
2009,09,23,10,46,19.90
2009,09,23,10,47,20.10
2009,09,23,10,48,20.20
2009,09,23,10,49,20.20
2009,09,23,10,50,20.30
2009,09,23,10,51,20.40
2009,09,23,10,52,20.50
2009,09,23,10,53,20.50
2009,09,23,10,54,20.60
2009,09,23,10,55,20.50
2009,09,23,10,56,20.50
2009,09,23,10,57,20.40
2009,09,23,10,58,20.40
2009,09,23,10,59,20.40
2009,09,23,11,00,20.30
2009,09,23,11,01,20.20
2009,09,23,11,02,20.20
2009,09,23,11,03,20.20
2009,09,23,11,04,20.20
2009,09,23,11,05,20.30
2009,09,23,11,06,20.40
2009,09,23,11,07,20.50
2009,09,23,11,08,20.70
2009,09,23,11,09,20.80
2009,09,23,11,10,21.00
2009,09,23,11,11,21.10
2009,09,23,11,12,21.20
2009,09,23,11,13,21.30
2009,09,23,11,14,21.30
2009,09,23,11,15,21.30
2009,09,23,11,16,21.30
2009,09,23,11,17,21.20
2009,09,23,11,18,21.20
2009,09,23,11,19,21.10
2009,09,23,11,20,21.10
2009,09,23,11,21,21.10
2009,09,23,11,22,21.10
2009,09,23,11,23,21.20
2009,09,23,11,24,21.30
2009,09,23,11,25,21.30
2009,09,23,11,26,21.30
2009,09,23,11,27,21.30
2009,09,23,11,28,21.30
2009,09,23,11,29,21.10
2009,09,23,11,30,21.00
2009,09,23,11,31,20.90
2009,09,23,11,32,20.90
2009,09,23,11,33,20.80
2009,09,23,11,34,20.70
2009,09,23,11,35,20.50
2009,09,23,11,36,20.40
2009,09,23,11,37,20.30
2009,09,23,11,38,20.30
2009,09,23,11,39,20.30
2009,09,23,11,40,20.20
2009,09,23,11,41,20.20
2009,09,23,11,42,20.10
2009,09,23,11,43,20.00
2009,09,23,11,44,19.90
2009,09,23,11,45,19.90
2009,09,23,11,46,20.00
2009,09,23,11,47,20.10
2009,09,23,11,48,20.20
2009,09,23,11,49,20.30
2009,09,23,11,50,20.40
2009,09,23,11,51,20.50
2009,09,23,11,52,20.60
2009,09,23,11,53,20.80
2009,09,23,11,54,21.00
2009,09,23,11,55,21.00
2009,09,23,11,56,21.10
2009,09,23,11,57,21.10
2009,09,23,11,58,21.10
2009,09,23,11,59,21.10
2009,09,23,12,00,21.10
2009,09,23,12,01,21.10
2009,09,23,12,02,21.10
2009,09,23,12,03,21.10
2009,09,23,12,04,21.00
2009,09,23,12,05,20.90
2009,09,23,12,06,20.80
2009,09,23,12,07,20.60
2009,09,23,12,08,20.50
2009,09,23,12,09,20.40
2009,09,23,12,10,20.20
2009,09,23,12,11,20.20
2009,09,23,12,12,20.20
2009,09,23,12,13,20.10
2009,09,23,12,14,20.10
2009,09,23,12,15,19.90
2009,09,23,12,16,19.90
2009,09,23,12,17,19.90
2009,09,23,12,18,19.80
2009,09,23,12,19,19.90
2009,09,23,12,20,19.80
2009,09,23,12,21,19.70
2009,09,23,12,22,19.70
2009,09,23,12,23,19.60
2009,09,23,12,24,19.70
2009,09,23,12,25,19.80
2009,09,23,12,26,19.90
2009,09,23,12,27,19.90
2009,09,23,12,28,20.10
2009,09,23,12,29,20.20
2009,09,23,12,30,20.30
2009,09,23,12,31,20.50
2009,09,23,12,32,20.60
2009,09,23,12,33,20.80
2009,09,23,12,34,20.90
2009,09,23,12,35,21.10
2009,09,23,12,36,21.20
2009,09,23,12,37,21.30
2009,09,23,12,38,21.40
2009,09,23,12,39,21.40
2009,09,23,12,40,21.40
2009,09,23,12,41,21.60
2009,09,23,12,42,21.60
2009,09,23,12,43,21.60
2009,09,23,12,44,21.70
2009,09,23,12,45,21.70
2009,09,23,12,46,21.70
2009,09,23,12,47,21.60
2009,09,23,12,48,21.50
2009,09,23,12,49,21.30
2009,09,23,12,50,21.20
2009,09,23,12,51,21.10
2009,09,23,12,52,21.00
2009,09,23,12,53,20.90
2009,09,23,12,54,20.80
2009,09,23,12,55,20.60
2009,09,23,12,56,20.50
2009,09,23,12,57,20.50
2009,09,23,12,58,20.50
2009,09,23,12,59,20.60
2009,09,23,13,00,20.60
2009,09,23,13,01,20.60
2009,09,23,13,02,20.50
2009,09,23,13,03,20.50
2009,09,23,13,04,20.50
2009,09,23,13,05,20.60
2009,09,23,13,06,20.70
2009,09,23,13,07,20.80
2009,09,23,13,08,21.00
2009,09,23,13,09,21.10
2009,09,23,13,10,21.10
2009,09,23,13,11,21.10
2009,09,23,13,12,21.10
2009,09,23,13,13,21.00
2009,09,23,13,14,21.00
2009,09,23,13,15,21.10
2009,09,23,13,16,21.20
2009,09,23,13,17,21.20
2009,09,23,13,18,21.20
2009,09,23,13,19,21.10
2009,09,23,13,20,21.10
2009,09,23,13,21,21.20
2009,09,23,13,22,21.30
2009,09,23,13,23,21.30
2009,09,23,13,24,21.30
2009,09,23,13,25,21.30
2009,09,23,13,26,21.40
2009,09,23,13,27,21.40
2009,09,23,13,28,21.40
2009,09,23,13,29,21.40
2009,09,23,13,30,21.60
2009,09,23,13,31,21.60
2009,09,23,13,32,21.50
2009,09,23,13,33,21.30
2009,09,23,13,34,21.10
2009,09,23,13,35,20.90
2009,09,23,13,36,20.80
2009,09,23,13,37,20.50
2009,09,23,13,38,20.20
2009,09,23,13,39,20.00
2009,09,23,13,40,19.90
2009,09,23,13,41,19.90
2009,09,23,13,42,20.00
2009,09,23,13,43,20.10
2009,09,23,13,44,20.20
2009,09,23,13,45,20.20
2009,09,23,13,46,20.30
2009,09,23,13,47,20.40
2009,09,23,13,48,20.40
2009,09,23,13,49,20.40
2009,09,23,13,50,20.50
2009,09,23,13,51,20.50
2009,09,23,13,52,20.60
2009,09,23,13,53,20.70
2009,09,23,13,54,20.90
2009,09,23,13,55,21.10
2009,09,23,13,56,21.30
2009,09,23,13,57,21.40
2009,09,23,13,58,21.60
2009,09,23,13,59,21.60
2009,09,23,14,00,21.70
2009,09,23,14,01,21.80
2009,09,23,14,02,21.90
2009,09,23,14,03,22.00
2009,09,23,14,04,22.00
2009,09,23,14,05,22.00
2009,09,23,14,06,22.10
2009,09,23,14,07,22.10
2009,09,23,14,08,22.10
2009,09,23,14,09,22.20
2009,09,23,14,10,22.30
2009,09,23,14,11,22.40
2009,09,23,14,12,22.60
2009,09,23,14,13,22.70
2009,09,23,14,14,22.80
2009,09,23,14,15,22.90
2009,09,23,14,16,23.00
2009,09,23,14,17,23.10
2009,09,23,14,18,23.10
2009,09,23,14,19,23.10
2009,09,23,14,20,23.20
2009,09,23,14,21,23.30
2009,09,23,14,22,23.30
2009,09,23,14,23,23.30
2009,09,23,14,24,23.30
2009,09,23,14,25,23.20
2009,09,23,14,26,23.20
2009,09,23,14,27,23.20
2009,09,23,14,28,23.20
2009,09,23,14,29,23.20
2009,09,23,14,30,23.20
2009,09,23,14,31,23.20
2009,09,23,14,32,23.20
2009,09,23,14,33,23.20
2009,09,23,14,34,23.20
2009,09,23,14,35,23.20
2009,09,23,14,36,23.20
2009,09,23,14,37,23.30
2009,09,23,14,38,23.30
2009,09,23,14,39,23.30
2009,09,23,14,40,23.30
2009,09,23,14,41,23.40
2009,09,23,14,42,23.50
2009,09,23,14,43,23.60
2009,09,23,14,44,23.70
2009,09,23,14,45,23.70
2009,09,23,14,46,23.70
2009,09,23,14,47,23.70
2009,09,23,14,48,23.60
2009,09,23,14,49,23.50
2009,09,23,14,50,23.40
2009,09,23,14,51,23.40
2009,09,23,14,52,23.40
2009,09,23,14,53,23.50
2009,09,23,14,54,23.60
2009,09,23,14,55,23.70
2009,09,23,14,56,23.80
2009,09,23,14,57,23.90
2009,09,23,14,58,24.00
2009,09,23,14,59,24.00
2009,09,23,15,00,24.10
2009,09,23,15,01,24.10
2009,09,23,15,02,24.20
2009,09,23,15,03,24.20
2009,09,23,15,04,24.30
2009,09,23,15,05,24.40
2009,09,23,15,06,24.40
2009,09,23,15,07,24.40
2009,09,23,15,08,24.40
2009,09,23,15,09,24.30
2009,09,23,15,10,24.20
2009,09,23,15,11,24.10
2009,09,23,15,12,24.10
2009,09,23,15,13,24.10
2009,09,23,15,14,24.10
2009,09,23,15,15,24.10
2009,09,23,15,16,24.10
2009,09,23,15,17,24.10
2009,09,23,15,18,24.10
2009,09,23,15,19,24.10
2009,09,23,15,20,24.10
2009,09,23,15,21,24.10
2009,09,23,15,22,24.10
2009,09,23,15,23,24.10
2009,09,23,15,24,24.20
2009,09,23,15,25,24.20
2009,09,23,15,26,24.20
2009,09,23,15,27,24.10
2009,09,23,15,28,24.20
2009,09,23,15,29,24.20
2009,09,23,15,30,24.30
2009,09,23,15,31,24.40
2009,09,23,15,32,24.50
2009,09,23,15,33,24.60
2009,09,23,15,34,24.70
2009,09,23,15,35,24.80
2009,09,23,15,36,24.90
2009,09,23,15,37,25.00
2009,09,23,15,38,25.20
2009,09,23,15,39,25.50
2009,09,23,15,40,25.90
2009,09,23,15,41,26.20
2009,09,23,15,42,26.50
2009,09,23,15,43,26.70
2009,09,23,15,44,26.90
2009,09,23,15,45,27.00
2009,09,23,15,46,27.20
2009,09,23,15,47,27.30
2009,09,23,15,48,27.30
2009,09,23,15,49,27.40
2009,09,23,15,50,27.50
2009,09,23,15,51,27.60
2009,09,23,15,52,27.60
2009,09,23,15,53,27.70
2009,09,23,15,54,27.80
2009,09,23,15,55,27.80
2009,09,23,15,56,27.80
2009,09,23,15,57,27.80
2009,09,23,15,58,27.80
2009,09,23,15,59,27.80
2009,09,23,16,00,27.80
2009,09,23,16,01,27.80
2009,09,23,16,02,27.80
2009,09,23,16,03,27.80
2009,09,23,16,04,27.70
2009,09,23,16,05,27.70
2009,09,23,16,06,27.70
2009,09,23,16,07,27.70
2009,09,23,16,08,27.70
2009,09,23,16,09,27.70
2009,09,23,16,10,27.70
2009,09,23,16,11,27.80
2009,09,23,16,12,27.80
2009,09,23,16,13,27.80
2009,09,23,16,14,27.80
2009,09,23,16,15,27.80
2009,09,23,16,16,27.80
2009,09,23,16,17,27.70
2009,09,23,16,18,27.70
2009,09,23,16,19,27.70
2009,09,23,16,20,27.70
2009,09,23,16,21,27.70
2009,09,23,16,22,27.70
2009,09,23,16,23,27.60
2009,09,23,16,24,27.60
2009,09,23,16,25,27.50
2009,09,23,16,26,27.40
2009,09,23,16,27,27.40
2009,09,23,16,28,27.40
2009,09,23,16,29,27.50
2009,09,23,16,30,27.60
2009,09,23,16,31,27.60
2009,09,23,16,32,27.60
2009,09,23,16,33,27.60
2009,09,23,16,34,27.50
2009,09,23,16,35,27.40
2009,09,23,16,36,27.40
2009,09,23,16,37,27.40
2009,09,23,16,38,27.30
2009,09,23,16,39,27.30
2009,09,23,16,40,27.30
2009,09,23,16,41,27.30
2009,09,23,16,42,27.30
2009,09,23,16,43,27.30
2009,09,23,16,44,27.30
2009,09,23,16,45,27.30
2009,09,23,16,46,27.30
2009,09,23,16,47,27.30
2009,09,23,16,48,27.30
2009,09,23,16,49,27.30
2009,09,23,16,50,27.30
2009,09,23,16,51,27.30
2009,09,23,16,52,27.20
2009,09,23,16,53,27.20
2009,09,23,16,54,27.20
2009,09,23,16,55,27.20
2009,09,23,16,56,27.20
2009,09,23,16,57,27.20
2009,09,23,16,58,27.20
2009,09,23,16,59,27.20
2009,09,23,17,00,27.20
2009,09,23,17,01,27.20
2009,09,23,17,02,27.20
2009,09,23,17,03,27.10
2009,09,23,17,04,27.10
2009,09,23,17,05,27.00
2009,09,23,17,06,26.90
2009,09,23,17,07,26.90
2009,09,23,17,08,26.90
2009,09,23,17,09,26.90
2009,09,23,17,10,26.90
2009,09,23,17,11,26.90
2009,09,23,17,12,26.90
2009,09,23,17,13,26.90
2009,09,23,17,14,26.90
2009,09,23,17,15,26.90
2009,09,23,17,16,26.90
2009,09,23,17,17,26.80
2009,09,23,17,18,26.80
2009,09,23,17,19,26.80